Simultaneous Nadir Overpasses (SNOs) Predictions

Prediction of SNOs between GOES-16 and METOP-B Satellite Orbit:

Table of predicted SNOs for the next 14.0 days since TLE Epoch: 4/8/2023
Index Date Time (GOES-16) GOES-16 Lat,Lon METOP-B Lat,Lon Distance(km) Time Diff (sec)
1 04/09/2023 02:29:44 -0.06, -75.20 -0.05, -75.24 4.27 80
2 04/11/2023 14:27:58 0.06, -75.21 -0.06, -74.82 45.75 80
3 04/13/2023 02:49:38 -0.05, -75.20 -1.00, -79.41 479.53 80
4 04/14/2023 02:26:20 -0.05, -75.21 0.15, -74.43 89.49 80
5 04/15/2023 14:45:12 0.05, -75.22 0.86, -78.99 428.95 80
6 04/16/2023 14:27:13 0.05, -75.23 -0.23, -74.00 140.79 80
7 04/18/2023 02:46:13 -0.05, -75.24 -0.81, -78.59 382.60 80
8 04/19/2023 02:22:54 -0.04, -75.25 0.34, -73.61 187.64 80
9 04/20/2023 14:41:46 0.04, -75.28 0.72, -78.16 329.19 80
10 04/21/2023 14:23:47 0.04, -75.30 -0.44, -73.18 241.42 80
